Oconto, WI

11:51 PM CST on December 11, 2019 (GMT -0600)
Oconto Municipal

Weather History for KOCQ - October, 2019

Change the Weather History Date:

Friday, October 11, 2019

  Actual Average Record
Temperature  
Mean Temperature 49 °F -  
Max Temperature 61 °F 58 °F 78 °F (2015)
Min Temperature 36 °F 36 °F 32 °F (2014)
Degree Days  
Heating Degree Days 16    
Moisture  
Dew Point 46 °F    
Average Humidity 86    
Maximum Humidity 98    
Minimum Humidity 58    
Precipitation  
Precipitation 0.69 in - - ()
Sea Level Pressure  
Sea Level Pressure 29.80 in    
Wind  
Wind Speed 11 mph (SSW)    
Max Wind Speed 20 mph    
Max Gust Speed 29 mph    
Visibility 9 miles    
Events      
Averages and records for this station are not official NWS values.
T = Trace of Precipitation, MM = Missing Value Source: NWS Daily Summary

Daily Weather History Graph

Daily Weather History Graph

Search for Another Location

Airport or City:

Astronomy

Oct. 11, 2019 Rise Set
Actual Time 7:01 AM CDT 6:14 PM CDT
Civil Twilight 6:32 AM CDT 6:43 PM CDT
Nautical Twilight 5:58 AM CDT 7:17 PM CDT
Astronomical Twilight 5:24 AM CDT 7:51 PM CDT
Moon 5:51 PM CDT (10/11) 4:32 AM CDT (10/11)
Length of Visible Light 12h 11m
Length of Day
11h 12m
Waxing Gibbous, 96% of the Moon is Illuminated
Oct 11
Waxing Gibbous
Oct 13
Full
Oct 21
Last Quarter
Oct 27
New
Nov 4
First Quarter

Hourly Weather History & Observations

Time (CDT) Temp. Windchill Dew Point Humidity Pressure Visibility Wind Dir Wind Speed Gust Speed Precip Events Conditions
12:15 AM 59.0 °F - 57.6 °F 95% 29.91 in 10.0 mi ESE 8.1 mph - N/A   Overcast
12:35 AM 59.4 °F - 57.4 °F 93% 29.90 in 10.0 mi ESE 9.2 mph - N/A   Overcast
12:55 AM 59.4 °F - 57.2 °F 93% 29.90 in 10.0 mi SE 9.2 mph - N/A   Overcast
1:15 AM 59.0 °F - 56.8 °F 93% 29.89 in 7.0 mi SE 6.9 mph - 0.01 in   Overcast
1:35 AM 58.8 °F - 56.8 °F 93% 29.88 in 10.0 mi SE 5.8 mph - 0.01 in   Overcast
1:55 AM 59.5 °F - 56.7 °F 90% 29.87 in 10.0 mi SSE 10.4 mph - 0.01 in   Overcast
2:15 AM 59.9 °F - 56.7 °F 89% 29.86 in 10.0 mi SSE 8.1 mph - N/A   Overcast
2:35 AM 59.7 °F - 57.0 °F 91% 29.85 in 10.0 mi SSE 8.1 mph - 0.01 in   Overcast
2:55 AM 59.2 °F - 57.4 °F 94% 29.85 in 10.0 mi SSE 9.2 mph - 0.04 in   Overcast
3:15 AM 59.0 °F - 57.7 °F 96% 29.84 in 10.0 mi SSE 10.4 mph 17.3 mph 0.07 in   Overcast
3:35 AM 59.0 °F - 57.7 °F 96% 29.83 in 10.0 mi South 8.1 mph - 0.11 in   Overcast
3:55 AM 59.2 °F - 57.7 °F 95% 29.82 in 10.0 mi SSE 13.8 mph - 0.11 in   Overcast
4:15 AM 59.0 °F - 57.6 °F 95% 29.81 in 10.0 mi SSE 11.5 mph - N/A   Overcast
4:35 AM 59.2 °F - 57.4 °F 94% 29.81 in 10.0 mi SSE 13.8 mph 24.2 mph N/A   Overcast
4:55 AM 59.2 °F - 57.2 °F 93% 29.81 in 10.0 mi SSE 11.5 mph - N/A   Overcast
5:15 AM 59.2 °F - 57.2 °F 93% 29.79 in 10.0 mi SSE 12.7 mph 18.4 mph N/A   Overcast
5:35 AM 59.4 °F - 57.2 °F 93% 29.80 in 10.0 mi SSE 11.5 mph 19.6 mph N/A   Overcast
5:55 AM 59.2 °F - 57.2 °F 93% 29.79 in 10.0 mi SSE 11.5 mph 18.4 mph N/A   Overcast
6:15 AM 59.2 °F - 57.4 °F 94% 29.79 in 10.0 mi SSE 12.7 mph 17.3 mph N/A   Overcast
6:35 AM 59.0 °F - 58.1 °F 97% 29.78 in 7.0 mi SSE 8.1 mph 17.3 mph 0.03 in   Overcast
6:55 AM 59.2 °F - 58.3 °F 97% 29.76 in 5.0 mi SSE 9.2 mph - 0.13 in   Overcast
7:15 AM 59.4 °F - 58.6 °F 97% 29.75 in 7.0 mi SSE 10.4 mph 17.3 mph 0.02 in   Overcast
7:35 AM 59.5 °F - 58.6 °F 97% 29.74 in 7.0 mi SE 13.8 mph 18.4 mph 0.02 in   Overcast
7:55 AM 59.9 °F - 59.0 °F 97% 29.75 in 10.0 mi SSE 9.2 mph - 0.03 in   Overcast
8:35 AM 60.4 °F - 59.9 °F 98% 29.73 in 4.0 mi SSE 9.2 mph 16.1 mph 0.12 in   Overcast
8:55 AM 60.4 °F - 59.9 °F 98% 29.73 in 5.0 mi SSE 8.1 mph - 0.13 in   Overcast
9:15 AM 60.4 °F - 59.9 °F 98% 29.72 in 7.0 mi SSE 8.1 mph - N/A   Overcast
9:35 AM 60.8 °F - 59.9 °F 97% 29.71 in 10.0 mi SSE 10.4 mph - 0.01 in   Overcast
9:55 AM 61.0 °F - 60.1 °F 97% 29.71 in 10.0 mi SSE 10.4 mph 16.1 mph 0.01 in   Overcast
10:15 AM 61.3 °F - 60.3 °F 96% 29.70 in 10.0 mi SSE 11.5 mph 18.4 mph N/A   Overcast
10:35 AM 61.3 °F - 60.8 °F 98% 29.69 in 4.0 mi SSE 10.4 mph 19.6 mph 0.01 in   Overcast
10:55 AM 61.0 °F - 60.4 °F 98% 29.69 in 5.0 mi SSE 11.5 mph 16.1 mph 0.02 in   Overcast
11:15 AM 61.0 °F - 60.3 °F 97% 29.68 in 5.0 mi South 11.5 mph 19.6 mph 0.01 in   Overcast
11:35 AM 53.2 °F - 51.1 °F 92% 29.72 in 5.0 mi WSW 17.3 mph 28.8 mph 0.03 in   Overcast
11:55 AM 51.8 °F - 50.4 °F 95% 29.73 in 4.0 mi WSW 15.0 mph 19.6 mph 0.06 in   Overcast
12:35 PM 49.3 °F - 47.5 °F 94% 29.74 in 7.0 mi WSW 13.8 mph 19.6 mph 0.07 in   Overcast
12:55 PM 47.8 °F - 45.9 °F 93% 29.75 in 10.0 mi SW 13.8 mph 24.2 mph 0.09 in   Overcast
1:15 PM 46.9 °F - 45.1 °F 93% 29.74 in 10.0 mi WSW 12.7 mph 20.7 mph 0.01 in   Overcast
1:35 PM 46.2 °F 40.5 °F 44.8 °F 95% 29.74 in 10.0 mi WSW 12.7 mph 18.4 mph 0.03 in   Overcast
1:55 PM 45.3 °F 38.4 °F 43.5 °F 93% 29.74 in 10.0 mi West 16.1 mph 25.3 mph 0.04 in   Overcast
2:15 PM 45.0 °F 38.5 °F 43.0 °F 93% 29.74 in 10.0 mi West 13.8 mph 27.6 mph N/A   Overcast
2:35 PM 45.0 °F 37.1 °F 43.0 °F 93% 29.75 in 10.0 mi West 19.6 mph 25.3 mph 0.01 in   Overcast
2:55 PM 44.6 °F 39.2 °F 41.7 °F 90% 29.75 in 10.0 mi West 10.4 mph 21.9 mph 0.01 in   Overcast
3:15 PM 44.1 °F 38.1 °F 40.8 °F 88% 29.75 in 10.0 mi West 11.5 mph 19.6 mph N/A   Overcast
3:35 PM 43.9 °F 37.5 °F 40.1 °F 87% 29.75 in 10.0 mi WSW 12.7 mph 19.6 mph N/A   Overcast
3:55 PM 44.1 °F 37.1 °F 38.5 °F 81% 29.76 in 10.0 mi West 15.0 mph 26.5 mph N/A   Overcast
4:15 PM 43.7 °F 38.1 °F 38.7 °F 82% 29.77 in 10.0 mi West 10.4 mph - N/A   Overcast
4:35 PM 42.8 °F 37.5 °F 39.6 °F 88% 29.79 in 7.0 mi WSW 9.2 mph - 0.01 in   Overcast
4:55 PM 42.4 °F 37.5 °F 39.7 °F 90% 29.79 in 10.0 mi WSW 8.1 mph - 0.01 in   Overcast
5:15 PM 42.3 °F 35.5 °F 37.9 °F 85% 29.80 in 10.0 mi West 12.7 mph 18.4 mph N/A   Overcast
5:35 PM 41.4 °F 35.7 °F 37.4 °F 86% 29.79 in 10.0 mi WSW 9.2 mph - N/A   Overcast
5:55 PM 41.5 °F 36.4 °F 37.6 °F 86% 29.79 in 10.0 mi WSW 8.1 mph - N/A   Overcast
6:15 PM 41.5 °F 34.6 °F 36.3 °F 82% 29.80 in 10.0 mi WSW 12.7 mph 23.0 mph N/A   Overcast
6:35 PM 41.4 °F 34.3 °F 35.2 °F 79% 29.82 in 10.0 mi WSW 12.7 mph 18.4 mph N/A   Overcast
6:55 PM 40.5 °F 32.8 °F 33.6 °F 77% 29.83 in 10.0 mi WSW 13.8 mph 19.6 mph N/A   Overcast
7:15 PM 40.1 °F 32.7 °F 32.2 °F 73% 29.84 in 10.0 mi West 12.7 mph - N/A   Overcast
7:35 PM 40.1 °F 33.6 °F 32.4 °F 74% 29.85 in 10.0 mi WSW 10.4 mph - N/A   Overcast
7:55 PM 40.1 °F 32.4 °F 32.0 °F 73% 29.85 in 10.0 mi WSW 13.8 mph 18.4 mph N/A   Overcast
8:15 PM 40.1 °F 32.0 °F 31.5 °F 71% 29.85 in 10.0 mi WSW 15.0 mph 23.0 mph N/A   Overcast
8:35 PM 39.4 °F 31.1 °F 29.3 °F 67% 29.85 in 10.0 mi WSW 15.0 mph 21.9 mph N/A   Overcast
8:55 PM 39.0 °F 30.6 °F 27.5 °F 63% 29.86 in 10.0 mi WSW 15.0 mph 21.9 mph N/A   Overcast
9:15 PM 39.2 °F 31.2 °F 27.0 °F 62% 29.85 in 10.0 mi WSW 13.8 mph 20.7 mph N/A   Overcast
9:35 PM 39.2 °F 30.5 °F 26.1 °F 59% 29.85 in 10.0 mi WSW 16.1 mph 27.6 mph N/A   Overcast
9:55 PM 38.8 °F 30.8 °F 25.3 °F 58% 29.85 in 10.0 mi WSW 13.8 mph 24.2 mph N/A   Overcast
10:15 PM 38.8 °F 32.6 °F 26.4 °F 61% 29.85 in 10.0 mi WSW 9.2 mph - N/A   Overcast
10:35 PM 38.5 °F 30.3 °F 27.5 °F 65% 29.84 in 10.0 mi WSW 13.8 mph 23.0 mph N/A   Overcast
10:55 PM 38.1 °F 30.2 °F 26.4 °F 63% 29.84 in 10.0 mi SW 12.7 mph 18.4 mph N/A   Mostly Cloudy
11:15 PM 37.6 °F 31.0 °F 25.7 °F 62% 29.84 in 10.0 mi SW 9.2 mph 16.1 mph N/A   Scattered Clouds
11:35 PM 37.4 °F 30.3 °F 25.5 °F 62% 29.84 in 10.0 mi SW 10.4 mph 17.3 mph N/A   Clear
11:55 PM 36.7 °F 29.4 °F 26.1 °F 65% 29.83 in 10.0 mi SW 10.4 mph - N/A   Scattered Clouds